Flag for Bulgaria Weather past 2 weeks in Plovdiv, Bulgaria

Now
48 °F

Clear.


Feels Like: 48 °F
Forecast: 55 / 73 °F
Wind: No wind

Location: Plovdiv Airport

Current Time: Oct 22, 2014 at 5:26:24 AM

Latest Report: Oct 22, 2014 at 5:00 AM


Visibility: 10 mi

Pressure: 29.77 "Hg

Humidity: 94%

Dew point: 46 °F

Location of PlovdivLocation

Historic Weather in Plovdiv — Graph

°F

Plovdiv temperature yesterday

Maximum temperature yesterday: 75 °F (at 4:00 PM)
Minimum temperature yesterday: 41 °F (at 8:00 AM)
Average temperature yesterday: 57 °F

Past Weeks' High & Low Weather Summary

 TemperatureHumidityPressure
High79 °F (Oct 17, 4:00 PM)100% (Oct 7, 4:00 AM)30.45 "Hg (Oct 7, 4:00 AM)
Low39 °F (Oct 20, 6:00 AM)41% (Oct 21, 4:00 PM)29.77 "Hg (Oct 22, 3:00 AM)
Average59 °F81%30.10 "Hg
* Reported Oct 7 4:00 AM — Oct 22 4:00 AM, Plovdiv, Weather by CustomWeather, © 2014

Note: Actual official high and low records may vary slightly from our data, if they occured in-between our weather recording intervals... More about our weather records

Advertising

Plovdiv weather history for previous 24 hours

 ConditionsComfort  
Time TempWeatherWind HumidityBarometerVisibility
4:00 AM
Oct 22
48 °FClear.1 mph87%29.77 "Hg10 mi
3:00 AM52 °FClear.No wind88%29.77 "Hg10 mi
2:00 AM48 °FClear.1 mph87%29.80 "Hg10 mi
1:00 AM57 °FClear.1 mph67%29.80 "Hg10 mi
12:00 AM57 °FClear.3 mph67%29.83 "Hg10 mi
11:00 PM
Oct 21
57 °FClear.3 mph72%29.83 "Hg10 mi
10:00 PM55 °FClear.1 mph77%29.83 "Hg10 mi
9:00 PM57 °FClear.No wind72%29.83 "Hg10 mi
8:00 PM59 °FClear.No wind72%29.80 "Hg10 mi
7:00 PM63 °FSunny.6 mph68%29.80 "Hg10 mi
6:00 PM70 °FSunny.3 mph57%29.83 "Hg10 mi
5:00 PM75 °FSunny.1 mph44%29.83 "Hg10 mi
4:00 PM75 °FSunny.1 mph41%29.83 "Hg10 mi
3:00 PM73 °FSunny.1 mph44%29.86 "Hg10 mi
2:00 PM72 °FSunny.3 mph44%29.89 "Hg10 mi
1:00 PM70 °FSunny.1 mph53%29.92 "Hg10 mi
12:00 PM66 °FSunny.1 mph60%29.95 "Hg10 mi
11:00 AM61 °FSunny.1 mph72%29.95 "Hg10 mi
10:00 AM55 °FSunny.No wind88%29.98 "Hg10 mi
9:00 AM48 °FFog.No wind100%29.98 "Hg3 mi
8:00 AM41 °FFog.No wind100%29.98 "Hg2 mi
7:00 AM43 °FFog.No wind100%29.98 "Hg3 mi
6:00 AM43 °FFog.1 mph100%30.01 "Hg2 mi
5:00 AM43 °FPassing clouds.No wind93%30.01 "Hg1 mi
Weather by CustomWeather, © 2014

See weather overviewHow to use our weather pages